User: anonymous   Login
Location: Unspecified
(0.0000°N, 0.0000°E)
Time: 05:04:11
(UTC+00:00)
Language:

SKYMED 3 - Orbit

View from above orbital plane
View from above orbital plane
View from above satellite
View from above satellite

Ground track
Ground track

The orbit data is extracted from the following two-line orbital elements,

1 33412U 08054A   18292.84896904 -.00000254  00000-0 -25355-4 0  9997
2 33412  97.8905 114.6618 0001337  82.2787 277.8588 14.82154178540182
Epoch (UTC): 19 October 2018 20:22:30
Eccentricity: 0.0001337
inclination: 97.8905°
perigee height: 621 km
apogee height: 623 km
right ascension of ascending node: 114.6618°
argument of perigee: 82.2787°
revolutions per day: 14.82154178
mean anomaly at epoch: 277.8588°
orbit number at epoch: 54018

The dashed part of the orbit path shows where the satellite is in the earth's shadow,  

DLR